Location: Namasale
(1.5000°N, 32.6167°E)
Time: 23:50:31
(UTC+00:00)

Transit 2A - Pass Details

Date: 20 April 2021
Orbit: 602 x 957 km, 66.7° (Epoch: 11 May)

Event Time Altitude Azimuth Distance (km) Brightness Sun altitude
Rises 04:13:25 0° 224° (SW) 3,391 8.8 6.4°
Reaches altitude 10° 04:16:29 10° 238° (WSW) 2,388 8.0 7.2°
Maximum altitude 04:20:38 22° 288° (WNW) 1,608 7.3 8.2°
Drops below altitude 10° 04:24:30 10° 339° (NNW) 2,197 8.3 9.1°
Sets 04:27:12 0° 354° (N) 3,051 9.2 9.8°
